Location: Czu?�w
(50.1404°N, 18.9919°E)
Time: 12:17:15
(UTC+00:00)

Cosmos 1110 Rocket - Pass Details

Date: 27 October 2020
Orbit: 753 x 780 km, 74.0° (Epoch: 24 November)

Event Time Altitude Azimuth Distance (km) Brightness Sun altitude
Rises 16:27:21 0° 202° (SSW) 3,230 7.7 -9.9°
Reaches altitude 10° 16:29:43 10° 203° (SSW) 2,304 6.9 -10.3°
Maximum altitude 16:34:58 89° 290° (WNW) 771 4.0 -11.1°
Drops below altitude 10° 16:40:12 10° 24° (NNE) 2,302 6.2 -12.0°
Sets 16:42:35 0° 25° (NNE) 3,229 6.9 -12.4°
